Weather History for Buffalo, WY

Change the Weather History Date:

Friday, October 19, 2012

  Actual Average Record
Temperature  
Mean Temperature 49 °F 45 °F  
Max Temperature 68 °F 57 °F 82 °F (2003)
Min Temperature 32 °F 33 °F 27 °F (1999)
Degree Days  
Heating Degree Days 16 20  
Month to date heating degree days 328  
Since 1 July heating degree days 642  
Cooling Degree Days 0 0  
Month to date cooling degree days 0  
Year to date cooling degree days 491  
Moisture  
Dew Point 24 °F    
Average Humidity 34    
Maximum Humidity 56    
Minimum Humidity 21    
Precipitation  
Precipitation 0.00 in 0.03 in 0.45 in (1957)
Month to date precipitation 0.73  
Year to date precipitation 12.31  
Sea Level Pressure  
Sea Level Pressure 29.82 in    
Wind  
Wind Speed 4 mph (South)    
Max Wind Speed 14 mph    
Max Gust Speed -    
Visibility 10 miles    
Events      
T = Trace of Precipitation, MM = Missing Value Source: NWS Daily Summary

Daily Weather History Graph

Daily Weather History Graph

Search for Another Location

Airport:

Trip Planner

Search our weather history database for the weather conditions in past years. The results will help you decide how hot, cold, wet, or windy it might be!

Date:

Astronomy

Oct. 19, 2012 Rise Set
Actual Time 7:27 AM MDT 6:15 PM MDT
Civil Twilight 6:58 AM MDT 6:44 PM MDT
Nautical Twilight 6:24 AM MDT 7:18 PM MDT
Astronomical Twilight 5:50 AM MDT 7:51 PM MDT
Moon 12:21 PM MDT (10/19) 9:48 PM MDT (10/19)
Length of Visible Light 11h 46m
Length of Day
10h 47m
Waxing Crescent, 24% of the Moon is Illuminated
Oct 19
Waxing Crescent
Oct 21
First Quarter
Oct 29
Full
Nov 6
Last Quarter
Nov 13
New

Hourly Weather History & Observations

Time (MDT) Temp. Windchill Dew Point Humidity Pressure Visibility Wind Dir Wind Speed Gust Speed Precip Events Conditions
12:53 AM 32.0 °F - 18.0 °F 56% 30.08 in 10.0 mi Calm Calm - N/A   Clear
1:53 AM 34.0 °F 29.8 °F 19.9 °F 56% 30.05 in 10.0 mi SSW 4.6 mph - N/A   Clear
2:53 AM 43.0 °F 41.3 °F 21.9 °F 43% 29.99 in 10.0 mi SW 3.5 mph - N/A   Clear
3:53 AM 44.1 °F - 21.9 °F 42% 29.97 in 10.0 mi Calm Calm - N/A   Clear
4:53 AM 42.1 °F 39.2 °F 23.0 °F 47% 29.95 in 10.0 mi SW 4.6 mph - N/A   Clear
5:53 AM 43.0 °F 38.8 °F 23.0 °F 45% 29.94 in 10.0 mi SSW 6.9 mph - N/A   Clear
6:53 AM 39.9 °F 34.5 °F 24.1 °F 53% 29.95 in 10.0 mi SW 8.1 mph - N/A   Clear
7:53 AM 44.1 °F 40.1 °F 24.1 °F 45% 29.93 in 10.0 mi SSW 6.9 mph - N/A   Clear
8:53 AM 48.0 °F - 25.0 °F 41% 29.91 in 10.0 mi WSW 6.9 mph - N/A   Clear
9:53 AM 54.0 °F - 27.0 °F 35% 29.87 in 10.0 mi SSW 4.6 mph - N/A   Clear
10:53 AM 60.1 °F - 27.0 °F 28% 29.83 in 10.0 mi SSE 11.5 mph - N/A   Clear
11:53 AM 62.1 °F - 26.1 °F 25% 29.83 in 10.0 mi SSE 10.4 mph - N/A   Clear
12:53 PM 64.9 °F - 27.0 °F 24% 29.78 in 10.0 mi SSE 13.8 mph - N/A   Clear
1:53 PM 66.9 °F - 25.0 °F 21% 29.75 in 10.0 mi SSE 9.2 mph - N/A   Clear
2:53 PM 64.9 °F - 24.1 °F 21% 29.72 in 10.0 mi SE 5.8 mph - N/A   Mostly Cloudy
3:53 PM 64.0 °F - 25.0 °F 23% 29.72 in 10.0 mi SE 5.8 mph - N/A   Mostly Cloudy
4:53 PM 63.0 °F - 26.1 °F 25% 29.72 in 10.0 mi SE 3.5 mph - N/A   Clear
5:53 PM 59.0 °F - 26.1 °F 28% 29.73 in 10.0 mi SW 4.6 mph - N/A   Mostly Cloudy
6:53 PM 55.9 °F - 23.0 °F 28% 29.73 in 10.0 mi SSW 3.5 mph - N/A   Clear
8:53 PM 55.9 °F - 24.1 °F 29% 29.67 in 10.0 mi Calm Calm - N/A   Partly Cloudy
9:53 PM 60.1 °F - 24.1 °F 25% 29.64 in 10.0 mi ESE 3.5 mph - N/A   Mostly Cloudy
10:53 PM 60.1 °F - 24.1 °F 25% 29.61 in 10.0 mi Calm Calm - N/A   Partly Cloudy
11:53 PM 59.0 °F - 25.0 °F 27% 29.60 in 10.0 mi SW 8.1 mph - N/A   Overcast